Torna al catalogo

GOES 3

AttivoMeteoGEO
NORAD 10953·PAYLOAD·🇺🇸 United States

Lanciato Jun 16, 1978 da Cape Canaveral Space Force Station

Loading…

TLE

AggiornatoSource: Space-Track

Epoca: Sep 14, 2026, 12:02 UTC

1 10953U 78062A   26257.50142086  .00000057  00000-0  00000-0 0  9991
2 10953   6.7070 298.7994 0002357 297.9084 179.4077  0.99358494129428

Traccia GOES 3 in tempo reale con AllMySat

Download on the App Store